Change the Weather History Date:

Saturday, May 24, 2014

  Actual Average Record
Temperature  
Mean Temperature 76 °F 75 °F  
Max Temperature 86 °F 86 °F 96 °F (1969)
Min Temperature 65 °F 64 °F 43 °F (1951)
Degree Days  
Heating Degree Days 0 0  
Month to date heating degree days 25 9  
Since 1 July heating degree days 2890 2350  
Cooling Degree Days 11 10  
Month to date cooling degree days 159 177  
Year to date cooling degree days 279 295  
Growing Degree Days 25 (Base 50)    
Moisture  
Dew Point 65 °F    
Average Humidity 74    
Maximum Humidity 100    
Minimum Humidity 48    
Precipitation  
Precipitation 0.00 in 0.16 in 1.42 in (1955)
Month to date precipitation 1.94 4.02  
Year to date precipitation 26.34 24.36  
Sea Level Pressure  
Sea Level Pressure 30.09 in    
Wind  
Wind Speed 4 mph (South)    
Max Wind Speed 12 mph    
Max Gust Speed 19 mph    
Visibility 9 miles    
Events      
T = Trace of Precipitation, MM = Missing Value Source: NWS Daily Summary

Daily Weather History Graph

Daily Weather History Graph

Search for Another Location

Airport or City:

Trip Planner

Search our weather history database for the weather conditions in past years. The results will help you decide how hot, cold, wet, or windy it might be!

Date:

Astronomy

May. 24, 2014 Rise Set
Actual Time 6:00 AM CDT 8:01 PM CDT
Civil Twilight 5:33 AM CDT 8:28 PM CDT
Nautical Twilight 4:59 AM CDT 9:02 PM CDT
Astronomical Twilight 4:24 AM CDT 9:38 PM CDT
Moon 3:15 AM CDT (5/24) 4:11 PM CDT (5/24)
Length of Visible Light 14h 55m
Length of Day
14h 00m
Waning Crescent, 18% of the Moon is Illuminated
May 24
Waning Crescent
May 28
New
Jun 5
First Quarter
Jun 12
Full
Jun 19
Last Quarter

Hourly Weather History & Observations

Time (CDT) Temp. Heat Index Dew Point Humidity Pressure Visibility Wind Dir Wind Speed Gust Speed Precip Events Conditions
12:53 AM 66.9 °F - 66.0 °F 97% 30.08 in 6.0 mi Calm Calm - N/A   Partly Cloudy
1:53 AM 66.0 °F - 64.0 °F 93% 30.07 in 4.0 mi Calm Calm - N/A   Clear
2:53 AM 68.0 °F - 66.0 °F 93% 30.07 in 7.0 mi South 3.5 mph - N/A   Clear
3:53 AM 72.0 °F - 66.0 °F 81% 30.08 in 10.0 mi Variable 4.6 mph - N/A   Clear
4:53 AM 71.1 °F - 64.9 °F 81% 30.09 in 10.0 mi Calm Calm - N/A   Clear
5:53 AM 68.0 °F - 64.9 °F 90% 30.10 in 9.0 mi South 4.6 mph - N/A   Clear
6:53 AM 69.1 °F - 64.9 °F 87% 30.12 in 10.0 mi South 3.5 mph - N/A   Clear
7:53 AM 71.1 °F - 66.0 °F 84% 30.13 in 10.0 mi South 3.5 mph - N/A   Clear
8:53 AM 73.0 °F - 66.9 °F 81% 30.14 in 10.0 mi Calm Calm - N/A   Clear
9:53 AM 73.9 °F - 66.0 °F 76% 30.15 in 10.0 mi Calm Calm - N/A   Clear
10:53 AM 75.9 °F - 66.9 °F 74% 30.14 in 10.0 mi Variable 3.5 mph - N/A   Clear
11:53 AM 79.0 °F - 66.9 °F 66% 30.14 in 10.0 mi Calm Calm - N/A   Clear
1:53 PM 84.9 °F 86.1 °F 64.0 °F 49% 30.10 in 10.0 mi Variable 6.9 mph - N/A   Scattered Clouds
2:53 PM 82.9 °F 84.4 °F 64.0 °F 53% 30.09 in 10.0 mi South 8.1 mph - N/A   Scattered Clouds
3:53 PM 84.0 °F 84.9 °F 63.0 °F 49% 30.07 in 10.0 mi South 9.2 mph - N/A   Scattered Clouds
4:53 PM 84.9 °F 85.9 °F 63.0 °F 48% 30.06 in 10.0 mi South 6.9 mph - N/A   Clear
5:53 PM 82.9 °F 84.4 °F 64.0 °F 53% 30.04 in 10.0 mi South 8.1 mph - N/A   Scattered Clouds
6:53 PM 81.0 °F 82.5 °F 64.0 °F 56% 30.05 in 10.0 mi South 9.2 mph - N/A   Clear
7:53 PM 78.1 °F - 64.9 °F 64% 30.05 in 10.0 mi SSE 6.9 mph - N/A   Clear
8:53 PM 73.0 °F - 64.9 °F 76% 30.06 in 10.0 mi SSE 4.6 mph - N/A   Clear
10:53 PM 66.9 °F - 64.0 °F 90% 30.08 in 10.0 mi SE 3.5 mph - N/A   Clear
11:53 PM 66.9 °F - 64.0 °F 90% 30.08 in 9.0 mi SE 4.6 mph - N/A   Clear